Location: Siratepeler Tepesi
(39.1042°N, 32.0781°E)
Time: 11:31:10
(UTC+00:00)

Cosmos 2278 Rocket - Pass Details

Date: 11 April 2026
Orbit: 839 x 845 km, 71.0° (Epoch: 14 May)

Event Time Altitude Azimuth Distance (km) Brightness Sun altitude
Rises 17:57:52 0° 350° (N) 3,413 5.9 -17.8°
Reaches altitude 10° 18:01:05 10° 8° (N) 2,473 4.9 -18.3°
Maximum altitude 18:05:03 19° 53° (NE) 1,905 3.8 -19.0°
Enters shadow 18:06:07 18° 67° (ENE) 1,950 3.7 -19.2°
